Weather Roundup
Issued by NWS

Home | Current Version | Previous Version | Graphics & Text | Print | Product List | Glossary Off
Versions: 1 2 3 4 5 6 7 8 9 10 11 12 13 14 15 16 17 18 19 20 21 22 23 24 25 26 27 28 29 30 31 32 33 34 35 36 37 38 39 40 41 42 43 44 45 46 47 48 49 50

000
NZUS93 KARX 282359
HRRWXR

CURRENT HOURLY OBSERVATIONS ACROSS
MUCH OF THE UPPER MISSISSIPPI VALLEY
NATIONAL WEATHER SERVICE LA CROSSE WI
600 PM CST WED JAN 28 2015


...SOUTHEAST MINNESOTA...


CITY           SKY/WX    TMP DP  RH WIND       PRES   REMARKS
ROCHESTER      CLOUDY    33  28  81 SE18      29.77F WCI  22
ROCHESTER/MAYO CLOUDY    33  27  78 SE8       29.78S WCI  26
WINONA         CLOUDY    34  27  75 SE6       29.82F WCI  29
AUSTIN         CLOUDY    34  28  80 S7G16     29.76S WCI  28
ALBERT LEA     CLOUDY    34  32  93 SE8       29.75R FOG     WCI  27
DODGE CENTER   CLOUDY    34  30  86 SE13      29.78R FOG     WCI  25
PRESTON        CLOUDY    32  27  81 S18G24    29.78F WCI  20
OWATONNA       MOCLDY    34  30  86 SE6       29.79R FOG     WCI  29
FARIBAULT      CLOUDY    34  30  86 SE3       29.79F
$$

...ELSEWHERE IN MINNESOTA...


CITY           SKY/WX    TMP DP  RH WIND       PRES   REMARKS
MINNEAPOLIS    CLOUDY    31  27  85 SE10      29.81F FOG     WCI  22
INTNL FALLS    CLOUDY    27  25  92 CALM      29.81R FOG
DULUTH         CLOUDY    29  22  75 S5        29.82R WCI  24
RED WING       CLOUDY    32  27  80 SE6       29.83R HAZE    WCI  26
REDWOOD FALLS  CLOUDY    33  31  92 SE3       29.77R FOG
MANKATO        CLOUDY    34  28  80 E6        29.78R WCI  29
WORTHINGTON    CLOUDY    34  30  86 N3        29.75R
FAIRMONT       CLOUDY    34  28  80 CALM      29.75R
$$

...SOUTHWEST WISCONSIN...


CITY           SKY/WX    TMP DP  RH WIND       PRES   REMARKS
LA CROSSE      CLOUDY    35  23  61 S15       29.84R WCI  25
PRAIRIE DU CHI CLOUDY    33  23  67 E8        29.83S WCI  26
BOSCOBEL       CLOUDY    33  23  66 VRB5      29.86F WCI  29
LONE ROCK      NOT AVBL
PLATTEVILLE    CLOUDY    32  27  80 E18       29.84F WCI  20
FORT MC COY    MOCLDY    32  22  69 SE3       29.86R
VIROQUA        FAIR      31  24  73 S15       29.81R WCI  20
WIS DELLS      NOT AVBL
$$

...ELSEWHERE IN WISCONSIN...


CITY           SKY/WX    TMP DP  RH WIND       PRES   REMARKS
MILWAUKEE      CLOUDY    32  22  66 S18       29.98F WCI  20
MADISON        CLOUDY    32  21  64 S15       29.89F WCI  22
GREEN BAY      CLOUDY    30  23  75 SE15      29.95F WCI  19
EAU CLAIRE     MOCLDY    29  23  78 SE8       29.83S WCI  21
BLACK RVR FLS  FAIR      31  23  73 SE6       29.84S WCI  25
MEDFORD        CLOUDY    26  21  83 SE12      29.82F WCI  15
WAUSAU         CLOUDY    27  20  75 SE12      29.85F WCI  17
WIS RAPIDS     MOCLDY    28  19  69 SE8       29.87F WCI  20
MARSHFIELD     MOCLDY    28  21  75 SE13      29.84F WCI  17
RICE LAKE      CLOUDY    29  24  82 SE8       29.85R WCI  21
$$

...NORTHEAST IOWA...


CITY           SKY/WX    TMP DP  RH WIND       PRES   REMARKS
DECORAH        CLOUDY    32  27  80 S14G23    29.80R WCI  22
MASON CITY     CLOUDY    34  31  88 SE10      29.75F WCI  26
CHARLES CITY   CLOUDY    34  32  93 SE12      29.80R WCI  25
OELWEIN        CLOUDY    34  30  86 SE17      29.79R WCI  23
$$

...ELSEWHERE IN IOWA...


CITY           SKY/WX    TMP DP  RH WIND       PRES   REMARKS
DES MOINES     CLOUDY    50  37  61 E7        29.71R
IOWA CITY      CLOUDY    36  32  85 SE12      29.79F WCI  28
FORT DODGE     CLOUDY    34  28  80 E7        29.71F WCI  28
$$

...NORTHERN ILLINOIS...


CITY           SKY/WX    TMP DP  RH WIND       PRES   REMARKS
CHICAGO-OHARE  CLOUDY    31  21  66 SE16G23   29.99F WCI  20
CHICAGO-MIDWAY CLOUDY    34  22  61 SE14G28   30.01F WCI  25
MOLINE         CLOUDY    36  30  79 SE10      29.84F WCI  28
ROCKFORD       MOCLDY    32  24  72 S20G29    29.94F WCI  20
PEORIA         MOCLDY    39  30  70 S20G26    29.92F WCI  29
$$

NOTE: "FAIR" INDICATES FEW OR NO CLOUDS BELOW 12,000 FEET WITH NO
SIGNIFICANT WEATHER AND/OR OBSTRUCTIONS TO VISIBILITY. WIND
SPEEDS ARE IN MILES-PER-HOUR.



USA.gov is the U.S. government's official web portal to all federal, state and local government web resources and services.